TimeMST,TemperatureF,Dew PointF,Humidity,Sea Level PressureIn,VisibilityMPH,Wind Direction,Wind SpeedMPH,Gust SpeedMPH,PrecipitationIn,Events,Conditions,WindDirDegrees,DateUTC
12:53 AM,44.1,12.0,27,29.74,10.0,SW,35.7,43.7,N/A,,Clear,220,2013-01-10 07:53:00
1:53 AM,39.9,12.0,32,29.76,10.0,SW,19.6,-,N/A,,Clear,230,2013-01-10 08:53:00
2:53 AM,44.1,10.0,25,29.72,10.0,SSW,23.0,29.9,N/A,,Clear,200,2013-01-10 09:53:00
3:53 AM,41.0,10.0,28,29.69,10.0,WSW,15.0,25.3,N/A,,Clear,240,2013-01-10 10:53:00
4:53 AM,45.0,10.0,24,29.65,10.0,SSW,31.1,39.1,N/A,,Clear,210,2013-01-10 11:53:00
5:53 AM,44.1,10.0,25,29.63,10.0,SSW,27.6,39.1,N/A,,Clear,210,2013-01-10 12:53:00
6:53 AM,44.1,9.0,24,29.63,10.0,SSW,31.1,39.1,N/A,,Clear,200,2013-01-10 13:53:00
7:53 AM,43.0,10.0,26,29.62,10.0,SW,29.9,39.1,N/A,,Clear,220,2013-01-10 14:53:00
8:53 AM,43.0,10.0,26,29.58,10.0,SW,27.6,36.8,N/A,,Clear,220,2013-01-10 15:53:00
9:53 AM,44.6,10.4,25,29.63,10.0,SW,18.4,27.6,N/A,,Clear,220,2013-01-10 16:53:00
10:53 AM,45.0,12.0,26,29.54,10.0,SW,27.6,41.4,N/A,,Clear,220,2013-01-10 17:53:00
11:53 AM,46.9,10.9,23,29.51,10.0,SW,29.9,41.4,N/A,,Clear,220,2013-01-10 18:53:00
12:53 PM,48.9,12.0,23,29.47,10.0,SW,33.4,41.4,N/A,,Clear,220,2013-01-10 19:53:00
1:53 PM,46.9,10.9,23,29.47,10.0,SW,40.3,50.6,N/A,,Clear,220,2013-01-10 20:53:00
2:53 PM,48.0,12.0,24,29.44,10.0,SW,34.5,51.8,N/A,,Clear,220,2013-01-10 21:53:00
3:53 PM,43.0,12.0,28,29.48,10.0,SW,28.8,40.3,N/A,,Clear,220,2013-01-10 22:53:00
4:53 PM,43.0,12.0,28,29.44,10.0,SW,28.8,39.1,N/A,,Clear,220,2013-01-10 23:53:00
5:53 PM,39.9,12.9,33,29.46,10.0,SW,19.6,-,N/A,,Clear,230,2013-01-11 00:53:00
6:53 PM,37.0,12.9,37,29.47,10.0,SSW,9.2,20.7,N/A,,Clear,210,2013-01-11 01:53:00
7:53 PM,32.0,12.9,45,29.47,10.0,Variable,3.5,-,N/A,,Clear,0,2013-01-11 02:53:00
8:53 PM,32.0,14.0,48,29.45,10.0,Calm,Calm,-,N/A,,Clear,0,2013-01-11 03:53:00
9:53 PM,33.1,15.1,48,29.42,10.0,Calm,Calm,-,N/A,,Clear,0,2013-01-11 04:53:00
10:53 PM,28.0,15.1,58,29.41,10.0,NNW,3.5,-,N/A,,Clear,330,2013-01-11 05:53:00
11:53 PM,27.0,15.1,61,29.40,10.0,Calm,Calm,-,N/A,,Clear,0,2013-01-11 06:53:00